EN

Hourly Weather Lagunihinskiy

Today, 5 August, Thursday

Time Temperature Precipitation Wind Pressure Humidity
00:00 +22°C° 0.3 mm 3 mps 752 mmHg 79%
01:00 +21°C° 0 mm 3 mps 752 mmHg 82%
02:00 +20°C° 0 mm 4 mps 752 mmHg 84%
03:00 +20°C° 0 mm 4 mps 752 mmHg 86%
04:00 +20°C° 0 mm 4 mps 753 mmHg 82%
05:00 +21°C° 0 mm 4 mps 753 mmHg 79%
06:00 +21°C° 0 mm 4 mps 753 mmHg 76%
07:00 +22°C° 0 mm 5 mps 753 mmHg 66%
08:00 +25°C° 0 mm 5 mps 753 mmHg 56%
09:00 +27°C° 0 mm 6 mps 753 mmHg 45%
10:00 +28°C° 0 mm 6 mps 753 mmHg 39%
11:00 +29°C° 0 mm 6 mps 753 mmHg 34%
12:00 +32°C° 0 mm 6 mps 753 mmHg 28%
13:00 +32°C° 0 mm 6 mps 753 mmHg 27%
14:00 +32°C° 0 mm 6 mps 753 mmHg 25%
15:00 +32°C° 0 mm 6 mps 753 mmHg 24%
16:00 +32°C° 0 mm 5 mps 753 mmHg 25%
17:00 +30°C° 0 mm 5 mps 753 mmHg 26%
18:00 +29°C° 0 mm 5 mps 753 mmHg 28%
19:00 +27°C° 0 mm 4 mps 753 mmHg 32%
20:00 +25°C° 0 mm 4 mps 754 mmHg 36%
21:00 +22°C° 0 mm 3 mps 754 mmHg 40%
22:00 +21°C° 0 mm 3 mps 754 mmHg 41%
23:00 +21°C° 0 mm 3 mps 754 mmHg 43%

Tomorrow, 6 August, Friday

Time Temperature Precipitation Wind Pressure Humidity
00:00 +20°C° 0 mm 3 mps 754 mmHg 44%
01:00 +19°C° 0 mm 3 mps 754 mmHg 48%
02:00 +19°C° 0 mm 3 mps 754 mmHg 51%
03:00 +18°C° 0 mm 3 mps 754 mmHg 55%
04:00 +19°C° 0 mm 3 mps 754 mmHg 55%
05:00 +19°C° 0 mm 3 mps 755 mmHg 55%
06:00 +20°C° 0 mm 3 mps 755 mmHg 55%
07:00 +22°C° 0 mm 3 mps 755 mmHg 48%
08:00 +25°C° 0 mm 4 mps 755 mmHg 42%
09:00 +26°C° 0 mm 4 mps 755 mmHg 35%
10:00 +27°C° 0 mm 4 mps 755 mmHg 31%
11:00 +29°C° 0 mm 4 mps 755 mmHg 28%
12:00 +30°C° 0 mm 4 mps 754 mmHg 24%
13:00 +30°C° 0 mm 4 mps 754 mmHg 24%
14:00 +30°C° 0 mm 4 mps 754 mmHg 23%
15:00 +32°C° 0 mm 4 mps 754 mmHg 22%
16:00 +30°C° 0 mm 4 mps 754 mmHg 23%
17:00 +30°C° 0 mm 4 mps 754 mmHg 24%
18:00 +29°C° 0 mm 4 mps 754 mmHg 25%
19:00 +27°C° 0 mm 4 mps 754 mmHg 28%
20:00 +25°C° 0 mm 4 mps 754 mmHg 30%
21:00 +22°C° 0 mm 3 mps 754 mmHg 33%
22:00 +21°C° 0 mm 3 mps 754 mmHg 35%
23:00 +20°C° 0 mm 3 mps 754 mmHg 38%

Day after tomorrow, 7 August, Saturday

Time Temperature Precipitation Wind Pressure Humidity
00:00 +20°C° 0 mm 3 mps 754 mmHg 40%
01:00 +19°C° 0 mm 3 mps 754 mmHg 41%
02:00 +19°C° 0 mm 3 mps 754 mmHg 42%
03:00 +18°C° 0 mm 3 mps 754 mmHg 44%
04:00 +19°C° 0 mm 3 mps 754 mmHg 42%
05:00 +20°C° 0 mm 2 mps 755 mmHg 41%
06:00 +20°C° 0 mm 2 mps 755 mmHg 40%
07:00 +24°C° 0 mm 2 mps 755 mmHg 35%
08:00 +26°C° 0 mm 3 mps 755 mmHg 30%
09:00 +28°C° 0 mm 3 mps 755 mmHg 25%
10:00 +30°C° 0 mm 3 mps 755 mmHg 24%
11:00 +31°C° 0 mm 3 mps 754 mmHg 22%
12:00 +33°C° 0 mm 3 mps 754 mmHg 20%
13:00 +34°C° 0 mm 3 mps 754 mmHg 19%
14:00 +34°C° 0 mm 2 mps 754 mmHg 19%
15:00 +35°C° 0 mm 2 mps 754 mmHg 18%
16:00 +34°C° 0 mm 2 mps 754 mmHg 20%
17:00 +32°C° 0 mm 2 mps 754 mmHg 21%
18:00 +32°C° 0 mm 2 mps 754 mmHg 22%
19:00 +30°C° 0 mm 3 mps 754 mmHg 25%
20:00 +28°C° 0 mm 3 mps 754 mmHg 28%
21:00 +26°C° 0 mm 4 mps 754 mmHg 31%
22:00 +25°C° 0 mm 3 mps 754 mmHg 32%
23:00 +25°C° 0 mm 3 mps 755 mmHg 34%

8 August, Sunday

Time Temperature Precipitation Wind Pressure Humidity
00:00 +24°C° 0 mm 3 mps 755 mmHg 35%
01:00 +24°C° 0 mm 3 mps 755 mmHg 37%
02:00 +22°C° 0 mm 3 mps 755 mmHg 38%
03:00 +21°C° 0 mm 3 mps 756 mmHg 40%
04:00 +22°C° 0 mm 3 mps 756 mmHg 39%
05:00 +24°C° 0 mm 3 mps 756 mmHg 39%
06:00 +24°C° 0 mm 2 mps 756 mmHg 38%
07:00 +27°C° 0 mm 3 mps 756 mmHg 34%
08:00 +29°C° 0 mm 3 mps 756 mmHg 30%
09:00 +31°C° 0 mm 3 mps 756 mmHg 25%
10:00 +33°C° 0 mm 3 mps 756 mmHg 24%
11:00 +34°C° 0 mm 3 mps 756 mmHg 24%
12:00 +35°C° 0 mm 4 mps 756 mmHg 23%
13:00 +36°C° 0 mm 4 mps 756 mmHg 22%
14:00 +36°C° 0 mm 4 mps 756 mmHg 22%
15:00 +37°C° 0 mm 4 mps 755 mmHg 21%
16:00 +36°C° 0 mm 4 mps 755 mmHg 22%
17:00 +35°C° 0 mm 3 mps 755 mmHg 24%
18:00 +34°C° 0 mm 3 mps 755 mmHg 25%
19:00 +33°C° 0 mm 3 mps 756 mmHg 28%
20:00 +30°C° 0 mm 3 mps 756 mmHg 31%
21:00 +29°C° 0 mm 3 mps 756 mmHg 34%
22:00 +28°C° 0 mm 3 mps 756 mmHg 36%
23:00 +27°C° 0 mm 3 mps 756 mmHg 38%

9 August, Monday

Time Temperature Precipitation Wind Pressure Humidity
00:00 +27°C° 0 mm 3 mps 756 mmHg 40%
01:00 +26°C° 0 mm 3 mps 756 mmHg 40%
02:00 +26°C° 0 mm 3 mps 757 mmHg 40%
03:00 +26°C° 0 mm 3 mps 757 mmHg 40%
04:00 +26°C° 0 mm 3 mps 757 mmHg 38%
05:00 +26°C° 0 mm 3 mps 757 mmHg 36%
06:00 +26°C° 0 mm 3 mps 757 mmHg 34%
07:00 +28°C° 0 mm 3 mps 757 mmHg 30%
08:00 +30°C° 0 mm 3 mps 757 mmHg 26%
09:00 +31°C° 0 mm 3 mps 757 mmHg 22%
10:00 +33°C° 0 mm 3 mps 757 mmHg 21%
11:00 +35°C° 0 mm 4 mps 757 mmHg 21%
12:00 +36°C° 0 mm 4 mps 757 mmHg 20%
13:00 +36°C° 0 mm 4 mps 756 mmHg 20%
14:00 +36°C° 0 mm 4 mps 756 mmHg 20%
15:00 +36°C° 0 mm 4 mps 756 mmHg 20%
16:00 +36°C° 0 mm 4 mps 756 mmHg 21%
17:00 +35°C° 0 mm 4 mps 756 mmHg 22%
18:00 +34°C° 0 mm 4 mps 756 mmHg 23%
19:00 +32°C° 0 mm 4 mps 756 mmHg 27%
20:00 +30°C° 0 mm 4 mps 756 mmHg 30%
21:00 +28°C° 0 mm 4 mps 756 mmHg 33%
22:00 +27°C° 0 mm 4 mps 756 mmHg 34%
23:00 +26°C° 0 mm 3 mps 756 mmHg 36%

10 August, Tuesday

Time Temperature Precipitation Wind Pressure Humidity
00:00 +25°C° 0 mm 3 mps 756 mmHg 37%
01:00 +25°C° 0 mm 3 mps 756 mmHg 38%
02:00 +25°C° 0 mm 3 mps 756 mmHg 40%
03:00 +24°C° 0 mm 3 mps 756 mmHg 41%
04:00 +25°C° 0 mm 3 mps 755 mmHg 40%
05:00 +25°C° 0 mm 3 mps 755 mmHg 40%
06:00 +25°C° 0 mm 3 mps 755 mmHg 40%
07:00 +27°C° 0 mm 3 mps 755 mmHg 35%
08:00 +29°C° 0 mm 4 mps 755 mmHg 31%
09:00 +32°C° 0 mm 4 mps 755 mmHg 27%
10:00 +33°C° 0 mm 4 mps 754 mmHg 25%
11:00 +35°C° 0 mm 4 mps 754 mmHg 23%
12:00 +36°C° 0 mm 4 mps 754 mmHg 21%
13:00 +36°C° 0 mm 4 mps 753 mmHg 20%
14:00 +37°C° 0 mm 3 mps 753 mmHg 20%
15:00 +37°C° 0 mm 3 mps 753 mmHg 19%
16:00 +36°C° 0 mm 3 mps 753 mmHg 21%
17:00 +35°C° 0 mm 3 mps 753 mmHg 23%
18:00 +34°C° 0 mm 3 mps 753 mmHg 24%
19:00 +33°C° 0 mm 3 mps 752 mmHg 27%
20:00 +32°C° 0 mm 4 mps 752 mmHg 29%
21:00 +30°C° 0 mm 5 mps 752 mmHg 31%
22:00 +29°C° 0 mm 4 mps 752 mmHg 34%
23:00 +28°C° 0 mm 4 mps 751 mmHg 36%
Show more